www.pogodaiklimat.ru

Погода и климат >> Архив погоды >> Норвегия >> Маяк Utsira


ПОГОДА на Маяке Utsira

  • Прогноз погоды на Маяке Utsira
  • Монитор погоды на Маяке Utsira

АРХИВ ПОГОДЫ на Маяке Utsira

Время (UTC), дата Ветер
(напр.,м/с)
 
Видим.   Явления Облачность Т
(С)
Тd
(С)
f
(%)
Тe
(С)
Тes
(С)
Комфортность P
(гПа)
Po
(гПа)
Тmin
(С)
Tmax
(С)
R
(мм)
R24
(мм)
S
(см)
07 17.04 В 7
{10}
н/о н/о +7.3 +0.3 61 +3 +3 1030.9 1023.9
08 17.04 ЮВ 8
{13}
н/о н/о +8.7 +0.4 56 +5 +5 1031.2 1024.2
09 17.04 ЮВ 11
{14}
55 км 1/0
[Cs]
+9.8 -0.7 48 +6 +6 1031.5 1024.5
10 17.04 ЮВ 9
{13}
н/о н/о +10.6 -0.8 45 +7 +7 1031.4 1024.5
11 17.04 ЮВ 8
{12}
н/о н/о +11.3 -0.5 44 +8 +8 1031.4 1024.5
12 17.04 ЮВ 8
{14}
40 км ясно +11.9 +0.1 44 +9 +11 1031.6 1024.7
13 17.04 ЮВ 8
{12}
н/о н/о +12.4 -0.4 41 +10 +10 1031.7 1024.8
14 17.04 Ю 7
{11}
н/о н/о +10.8 +1.9 54 +8 +8 1031.9 1025.0
15 17.04 Ю 7
{9}
40 км 4/0
[Ci sp]
+10.8 +1.9 54 +8 +9 1031.8 1024.9
16 17.04 ЮВ 8
{12}
н/о н/о +10.6 +0.6 50 +7 +7 1032.0 1025.1
17 17.04 Ю 7
{10}
н/о н/о +9.6 +0.8 54 +6 +6 1032.4 1025.4
18 17.04 ЮВ 6
{12}
30 км 5/0
[Cs]
+8.9 +1.1 58 +5 +6 1032.5 1025.5 +5.9 +12.4
19 17.04 ЮВ 6
{11}
н/о н/о +8.8 +0.3 55 +5 +5 1033.1 1026.1
20 17.04 ЮВ 8
{11}
н/о н/о +9.3 -1.1 48 +6 +6 1033.5 1026.5
21 17.04 ЮВ 6
{10}
30 км 3/0
[Cs]
+8.9 -0.4 52 +6 +6 1033.8 1026.8
22 17.04 ЮВ 7
{9}
н/о н/о +8.3 +0.1 56 +4 +4 1034.1 1027.1
23 17.04 ЮВ 6
{9}
н/о н/о +8.0 -0.2 56 +4 +4 1034.6 1027.6
00 18.04
{11}
н/о н/о +7.7 -1.0 54 1034.8 1027.8
01 18.04 ЮВ 6
{8}
н/о н/о +7.3 -0.4 58 +3 +3 1034.9 1027.9
02 18.04 ЮВ 6
{8}
н/о н/о +6.8 -0.2 61 +3 +3 1035.1 1028.0
03 18.04 ЮВ 7
{9}
н/о н/о +6.8 -1.1 57 +2 +2 1035.1 1028.0
04 18.04 ЮВ 6
{9}
н/о н/о +6.9 -1.7 54 +3 +3 1035.2 1028.1
05 18.04 ЮВ 6
{8}
н/о н/о +6.9 -1.5 55 +3 +3 1035.4 1028.3
06 18.04 ЮВ 6
{9}
40 км 5/0
[Cs]
+7.4 -0.5 57 +4 +4 1035.6 1028.6 +6.6 +9.6
07 18.04 ЮВ 6
{8}
н/о н/о +8.7 +0.2 55 +5 +5 1036.0 1029.0
08 18.04 ЮВ 6
{8}
н/о н/о +10.7 +0.2 48 +8 +8 1036.4 1029.4
09 18.04 ЮВ 6
{9}
40 км 8/0
[Cs]
+12.0 +0.2 44 +10 +12 1036.6 1029.7
10 18.04 ЮВ 6
{8}
н/о н/о +13.1 -0.2 40 +11 +11 1036.7 1029.8
11 18.04 ЮВ 5
{8}
н/о н/о +14.0 -0.1 38 +13 +13 1036.8 1029.9
12 18.04 Ю 5
{9}
40 км 5/0
[Cs]
+14.4 -0.4 36 +13 +18 1036.8 1029.9
13 18.04 Ю 4
{6}
н/о н/о +14.4 -0.1 37 +13 +13 1036.8 1029.9
14 18.04 Ю 4
{6}
н/о н/о +13.8 +0.1 39 +13 +13 1036.6 1029.7
15 18.04 Ю 4
{6}
40 км 4/0
[Ci sp]
+12.9 +0.3 42 +11 +15 1036.5 1029.6
16 18.04 Ю 3
{6}
н/о н/о +11.8 +0.9 47 +11 +11 1036.6 1029.7
17 18.04 Ю 3
{5}
н/о н/о +11.5 +1.2 49 +10 +10 1036.5 1029.6
18 18.04 Ю 4
{6}
40 км 5/0
[Ci sp]
+10.5 +1.1 52 +8 +9 1036.4 1029.4 +7.4 +14.7
19 18.04 ЮВ 4
{5}
н/о н/о +9.5 +1.2 56 +7 +7 1036.9 1029.9
20 18.04 ЮВ 4
{5}
н/о н/о +9.2 +1.4 58 +7 +7 1037.1 1030.1
21 18.04 Ю 4
{5}
30 км 8/0
[Cs]
+9.4 +0.8 55 +7 +7 1037.3 1030.3
22 18.04 Ю 4
{5}
н/о н/о +9.5 +0.4 53 +7 +7 1037.6 1030.6
23 18.04 Ю 4
{5}
н/о н/о +9.7 -0.5 49 +7 +7 1037.8 1030.8
00 19.04 ЮВ 2
{5}
н/о н/о +9.6 -0.8 48 +9 +9 1037.7 1030.7
01 19.04 В 2
{3}
н/о н/о +9.1 -0.5 51 +8 +8 1037.5 1030.5
02 19.04 ЮВ 3
{4}
н/о н/о +9.0 -0.6 51 +7 +7 1037.4 1030.4
03 19.04 ЮВ 6
{6}
н/о н/о +8.8 +0.3 55 +5 +5 1037.2 1030.2
04 19.04 ЮВ 6
{7}
н/о н/о +8.6 +0.8 58 +5 +5 1037.2 1030.2
05 19.04 ЮВ 6
{8}
н/о н/о +8.7 +1.4 60 +5 +5 1037.5 1030.5
06 19.04 ЮВ 5
{8}
40 км 6/0
[Ci sp]
+9.5 +1.2 56 +7 +7 1037.9 1030.9 +8.4 +10.5
07 19.04 ЮВ 5
{7}
н/о н/о +10.9 +1.7 53 +8 +8 1037.9 1030.9
08 19.04 Ю 5
{7}
н/о н/о +11.6 +1.3 49 +9 +9 1038.3 1031.3
09 19.04 ЮВ 4
{7}
40 км 5/0
[Ci sp]
+13.1 +0.2 41 +12 +16 1038.3 1031.4
10 19.04 Ю 4
{6}
н/о н/о +13.6 -0.4 38 +12 +12 1038.1 1031.2
11 19.04 Ю 4
{6}
н/о н/о +13.9 -0.9 36 +13 +13 1037.7 1030.8
12 19.04 Ю 3
{7}
40 км 5/0
[Ci sp]
+14.2 -1.0 35 +14 +21 1037.5 1030.6
13 19.04 Ю 4
{5}
н/о н/о +14.3 -0.9 35 +13 +13 1037.1 1030.2
14 19.04 Ю 4
{6}
н/о н/о +13.8 +0.1 39 +13 +13 1036.8 1029.9
15 19.04 Ю 4
{6}
55 км 3/0
[Ci sp]
+13.6 +0.6 41 +12 +16 1036.4 1029.5
16 19.04
{6}
н/о н/о +12.2 +1.5 48 1036.2 1029.3
17 19.04 Ю 5
{7}
н/о н/о +11.4 +2.2 53 +9 +9 1035.9 1029.0
18 19.04 Ю 4
{7}
55 км 1/0
[Ci fib]
+10.0 +2.8 61 +8 +8 1035.9 1028.9 +9.5 +14.5
19 19.04 Ю 5
{6}
н/о н/о +9.5 +2.2 60 +7 +7 1036.0 1029.0
20 19.04
{7}
н/о н/о +9.1 +2.2 62 1036.0 1029.0
21 19.04 Ю 5
{7}
40 км 1/0
[Ci fib]
+8.1 +4.1 76 +5 +5 1035.9 1028.9
22 19.04
{6}
н/о н/о +8.0 +4.0 76 1036.2 1029.2
23 19.04 Ю 5
{7}
н/о н/о +8.2 +2.7 68 +5 +5 1035.9 1028.9
00 20.04
{8}
н/о н/о +8.4 +1.8 63 1035.5 1028.5
01 20.04 ЮВ 6
{8}
н/о н/о +8.6 +1.3 60 +5 +5 1035.1 1028.1
02 20.04
{7}
н/о н/о +8.4 +1.6 62 1035.2 1028.2
03 20.04 ЮВ 5
{7}
н/о н/о +7.8 +2.1 67 +4 +4 1034.9 1027.9
04 20.04 ЮВ 6
{8}
н/о н/о +7.6 +2.3 69 +4 +4 1034.5 1027.5
05 20.04
{8}
н/о н/о +7.9 +2.8 70 1034.3 1027.3
06 20.04 Ю 6
{9}
40 км 4/0
[Ci sp]
+8.3 +2.8 68 +5 +5 1034.3 1027.3 +7.4 +10.0
07 20.04 Ю 6
{8}
н/о н/о +9.0 +3.2 67 +5 +5 1034.4 1027.4
08 20.04 Ю 6
{8}
н/о н/о +9.0 +3.4 68 +5 +5 1034.2 1027.2
09 20.04 Ю 7
{10}
40 км 1/0
[Ac und Cs]
+9.2 +3.6 68 +5 +7 1033.5 1026.5
10 20.04 Ю 6
{10}
н/о н/о +10.2 +4.4 67 +7 +7 1033.9 1026.9
11 20.04
{9}
н/о н/о +9.5 +3.7 67 1033.8 1026.8
12 20.04
{10}
30 км 9/0 2000 м
[Ac As]
+9.9 +3.4 64 1033.3 1026.3
13 20.04
{9}
н/о н/о +9.6 +3.6 66 1033.0 1026.0
14 20.04
{9}
н/о н/о +9.9 +4.5 69 1032.2 1025.2
15 20.04
{9}
30 км 9/0
[Ac trans Cs]
+9.9 +3.4 64 1031.7 1024.7
16 20.04
{9}
н/о н/о +10.2 +3.0 61 1031.3 1024.4
17 20.04 Ю 5
{8}
н/о н/о +9.7 +3.9 67 +7 +7 1031.0 1024.0
18 20.04 ЮЗ 5
{9}
25 км 9/0
[Ac trans Cs]
+8.9 +4.3 73 +6 +6 1030.6 1023.6 +8.3 +10.4
19 20.04 Ю 5
{7}
н/о н/о +8.2 +4.8 79 +5 +5 1030.5 1023.5
20 20.04 Ю 5
{6}
н/о н/о +7.9 +5.2 83 +4 +4 1030.0 1023.0
21 20.04 Ю 6
{7}
20 км 9/0 2000 м
[Ac As Cs]
+8.0 +5.1 82 +4 +4 1029.5 1022.5
22 20.04 Ю 6
{8}
н/о н/о +8.1 +5.4 83 +4 +4 1028.9 1021.9
23 20.04 Ю 7
{8}
н/о н/о +7.9 +5.4 84 +3 +3 1028.3 1021.3
00 21.04 Ю 6
{8}
н/о н/о +7.7 +5.4 85 +3 +3 1027.6 1020.6
01 21.04 Ю 5
{9}
н/о н/о +7.7 +5.0 83 +4 +4 1026.9 1019.9
02 21.04 Ю 6
{8}
н/о н/о +7.7 +5.2 84 +3 +3 1026.1 1019.1
03 21.04 Ю 6
{9}
н/о н/о +7.5 +5.0 84 +3 +3 1025.2 1018.2
04 21.04 Ю 7
{9}
н/о н/о +7.5 +5.0 84 +3 +3 1024.5 1017.5
05 21.04 Ю 7
{9}
н/о н/о +7.6 +4.7 82 +3 +3 1024.2 1017.2
06 21.04 Ю 7
{9}
15 км 10/0
[Ac As Cs]
+8.0 +4.6 79 +4 +4 1023.5 1016.6 +7.5 +9.0
07 21.04 Ю 7
{10}
н/о н/о +8.1 +4.3 77 +4 +4 1023.3 1016.4
08 21.04 Ю 8
{10}
н/о н/о +9.1 +4.3 72 +5 +5 1022.9 1016.0
09 21.04 Ю 8
{11}
15 км 10/0 2000 м
[Ac As Cs]
+9.0 +4.2 72 +5 +5 1022.4 1015.5
10 21.04 Ю 8
{11}
н/о н/о +9.2 +4.2 71 +5 +5 1021.6 1014.7
11 21.04 Ю 10
{13}
н/о н/о +9.4 +4.2 70 +5 +5 1020.9 1014.0
12 21.04 Ю 10
{14}
10 км 10/0
[Ac trans Cs]
+9.8 +5.0 72 +5 +6 1020.6 1013.7
13 21.04 Ю 10
{12}
н/о н/о +9.5 +4.9 73 +5 +5 1020.0 1013.1
14 21.04 Ю 9
{13}
н/о н/о +9.3 +5.1 75 +5 +5 1019.5 1012.6
15 21.04 Ю 9
{12}
12 км 9/0 2000 м
[Ac trans Cs]
+9.2 +5.4 77 +5 +5 1019.1 1012.2
16 21.04 Ю 8
{11}
н/о н/о +8.9 +5.5 79 +5 +5 1018.8 1011.9
17 21.04 Ю 8
{11}
н/о н/о +8.5 +5.4 81 +4 +4 1018.4 1011.5
18 21.04 Ю 8
{13}
10 км 9/0 2000 м
[Ac As Cs]
+8.4 +5.5 82 +4 +4 1018.1 1011.2 +8.0 +9.9
19 21.04 Ю 9
{12}
н/о н/о +8.2 +5.1 81 +3 +3 1018.1 1011.2
20 21.04 Ю 8
{12}
н/о н/о +8.3 +5.1 80 +4 +4 1018.1 1011.2
21 21.04 Ю 9
{12}
10 км 10/0 2000 м
[Ac As Cs]
+8.2 +4.8 79 +3 +3 1018.1 1011.2
22 21.04 Ю 9
{12}
н/о н/о +8.4 +4.4 76 +4 +4 1018.3 1011.4
23 21.04 Ю 10
{13}
н/о н/о +8.3 +4.0 74 +3 +3 1018.4 1011.5
00 22.04 Ю 9
{13}
н/о н/о +8.2 +3.9 74 +3 +3 1018.4 1011.5
01 22.04 Ю 8
{10}
н/о н/о +8.0 +3.7 74 +3 +3 1018.2 1011.3
02 22.04 Ю 8
{10}
н/о н/о +7.8 +3.7 75 +3 +3 1018.0 1011.1
03 22.04 Ю 8
{10}
н/о н/о +7.8 +3.7 75 +3 +3 1017.8 1010.9
04 22.04 Ю 9
{11}
н/о н/о +8.1 +2.8 69 +3 +3 1017.7 1010.8
05 22.04 Ю 8
{11}
н/о н/о +8.1 +2.6 68 +4 +4 1017.7 1010.8
06 22.04 Ю 8
{11}
25 км 3/0
[Cs]
+8.4 +2.6 67 +4 +4 1017.9 1011.0 +7.6 +8.4
07 22.04 Ю 7
{10}
н/о н/о +9.1 +2.7 64 +5 +5 1018.1 1011.2
08 22.04 Ю 7
{10}
н/о н/о +10.5 +2.6 58 +7 +7 1018.2 1011.3
09 22.04 ЮВ 8
{11}
30 км 1/0
[Cs]
+12.7 +1.4 46 +10 +11 1017.8 1011.0
10 22.04 Ю 9
{12}
н/о н/о +12.4 +3.1 53 +9 +9 1017.6 1010.8
11 22.04 Ю 10
{14}
н/о н/о +11.8 +3.1 55 +8 +8 1017.4 1010.6
12 22.04 Ю 11
{14}
25 км ясно +12.0 +3.0 54 +8 +9 1017.2 1010.4
13 22.04 Ю 13
{17}
н/о н/о +12.5 +2.7 51 +9 +9 1016.9 1010.1
14 22.04 Ю 13
{18}
н/о н/о +12.8 +2.4 49 +9 +9 1016.7 1009.9
15 22.04 Ю 12
{17}
30 км ясно +12.4 +2.6 51 +9 +9 1016.8 1010.0
16 22.04 Ю 11
{15}
н/о н/о +12.3 +3.0 53 +9 +9 1016.6 1009.8
17 22.04 Ю 10
{14}
н/о н/о +12.2 +2.9 53 +9 +9 1016.4 1009.6
18 22.04 Ю 8
{18}
40 км ясно +11.4 +2.2 53 +8 +8 1016.1 1009.3 +8.4 +13.2
19 22.04 Ю 8
{11}
н/о н/о +10.7 +2.3 56 +7 +7 1016.2 1009.4
20 22.04 Ю 8
{11}
н/о н/о +10.6 +2.0 55 +7 +7 1016.6 1009.8
21 22.04 ЮВ 7
{10}
30 км ясно +10.0 +3.1 62 +7 +7 1016.7 1009.9
22 22.04 ЮВ 7
{9}
н/о н/о +11.2 +0.3 47 +8 +8 1016.6 1009.8
23 22.04 ЮВ 8
{11}
н/о н/о +11.9 -0.9 41 +9 +9 1016.6 1009.8
00 23.04 ЮВ 9
{12}
н/о н/о +11.4 -0.4 44 +8 +8 1017.0 1010.2
01 23.04 ЮВ 10
{14}
н/о н/о +10.4 +1.5 54 +6 +6 1017.1 1010.3
02 23.04 ЮВ 9
{13}
н/о н/о +10.4 +1.8 55 +7 +7 1017.1 1010.3
03 23.04 ЮВ 8
{13}
н/о н/о +10.1 +1.5 55 +6 +6 1016.6 1009.8
04 23.04 ЮВ 11
{15}
н/о н/о +10.5 +2.1 56 +6 +6 1016.4 1009.6
05 23.04 ЮВ 10
{15}
н/о н/о +10.7 +1.3 52 +7 +7 1016.4 1009.6
06 23.04 ЮВ 9
{15}
55 км 1/0
[Cs]
+10.9 +3.2 59 +7 +7 1016.6 1009.8 +9.5 +12.3
07 23.04 ЮВ 9
{14}
н/о н/о +12.1 +3.4 55 +9 +9 1016.7 1009.9
08 23.04 ЮВ 11
{15}
н/о н/о +13.0 +3.4 52 +10 +10 1016.6 1009.8
09 23.04 ЮВ 9
{14}
40 км 1/0
[Ci fib]
+13.9 +4.0 51 +11 +12 1016.6 1009.8
10 23.04 ЮВ 8
{12}
н/о н/о +14.6 +4.0 49 +13 +13 1016.2 1009.5
11 23.04 ЮВ 8
{12}
н/о н/о +14.8 +4.5 50 +13 +13 1015.9 1009.2
12 23.04 ЮВ 11
{15}
40 км 1/0
[]
+16.0 +4.4 46 +14 +14 1015.7 1009.0
13 23.04 ЮВ 7
{14}
н/о н/о +14.8 +4.8 51 +13 +13 1015.6 1008.9
14 23.04 Ю 5
{9}
н/о н/о +14.6 +4.3 50 +13 +13 1015.0 1008.3
15 23.04 Ю 5
{8}
30 км ясно +13.1 +4.5 56 +11 +14 1014.7 1007.9
16 23.04 ЮВ 10
{14}
н/о н/о +15.4 +1.9 40 +13 +13 1014.1 1007.4
17 23.04 В 12
{15}
н/о н/о +15.3 -0.4 34 +13 +13 1013.8 1007.1
18 23.04 В 11
{15}
30 км ясно +14.4 -1.6 33 +12 +12 1013.8 1007.1 +10.9 +16.4
19 23.04 В 10
{13}
н/о н/о +13.5 -0.5 38 +11 +11 1014.3 1007.5
20 23.04 В 9
{14}
н/о н/о +13.4 -1.3 36 +11 +11 1014.5 1007.7
21 23.04 В 9
{14}
30 км ясно +13.7 -1.1 36 +11 +11 1014.4 1007.7
22 23.04 В 7
{12}
н/о н/о +13.4 -1.3 36 +11 +11 1014.3 1007.5
23 23.04 В 7
{10}
н/о н/о +12.6 -0.6 40 +10 +10 1014.0 1007.2
00 24.04 В 6
{14}
н/о н/о +12.1 +0.6 45 +10 +10 1013.7 1006.9
01 24.04 В 8
{11}
н/о н/о +11.7 +0.8 47 +9 +9 1013.3 1006.5
02 24.04 В 9
{12}
н/о н/о +11.3 +0.1 46 +8 +8 1012.7 1005.9
03 24.04 В 10
{13}
н/о н/о +12.0 -1.1 40 +9 +9 1012.2 1005.4
04 24.04 В 9
{13}
н/о н/о +11.4 -0.7 43 +8 +8 1011.5 1004.7
05 24.04 В 11
{14}
н/о н/о +11.5 -0.9 42 +8 +8 1010.9 1004.1
06 24.04 В 9
{14}
25 км ясно +11.6 -0.2 44 +8 +9 1010.9 1004.1 +10.3 +14.4
07 24.04 В 8
{12}
н/о н/о +12.9 -0.3 40 +10 +10 1010.4 1003.7

 

Местоположение метеостанции Маяк Utsira (Норвегия): широта 59.31 долгота 4.88 высота над уровнем моря 55 м.

В архиве по умолчанию представлена погода на Маяке Utsira за последнюю неделю. Архивные данные за месяц целиком и за предыдущие месяцы, начиная с января 2011 года, Вы можете получить, выбрав интересующий диапазон дат из раскрывающегося списка и нажав кнопку "Ввод!".


*Определитесь, кто Вы:
робот инопланетянин человек

Внимание! Время в таблицах - всемирное. Для получения местного времени необходимо прибавить поправку, которая равна 1 ч.

Смотрите также архив погоды в соседних городах и на ближайших метеорологических станциях:

Погода в Роваере (Норвегия) (18 км)
Погода в Аэропорту Haugesund (Норвегия) (19 км)
Погода в Квитсёй (Норвегия) (41 км)
Погода в Недре Ватс (Норвегия) (52 км)
Погода в Ставангере (Норвегия) (62 км)
Погода в Ставангер аэропорту (Норвегия) (65 км)
Погода в Фистере (Норвегия) (67 км)
Погода на Маяке Slatteroy (Норвегия) (68 км)
Погода в Сархейме (Норвегия) (75 км)
Погода на Лярватне (Норвегия) (76 км)

Пояснения к столбцам:

Ветер - указаны скорость ветра в м/с - средняя за 10 мин, порывы в срок и между сроками (в фигурных скобках) и направление, откуда дует ветер: С - северный, СВ - северо-восточный, В - восточный, ЮВ - юго-восточный, Ю - южный, ЮЗ - юго-западный, З - западный, СЗ - северо-западный.
Видимость - горизонтальная дальность видимости в метрах или километрах. При видимости от 1 до 10 км при отсутствии осадков обычно наблюдается дымка, при ухудшении видимости до 1 км и менее - туман. В сухую погоду видимость может ухудшаться дымом, пылью или мглою.
Явления - указаны атмосферные явления, наблюдавшиеся в срок или в последний час перед сроком; фигурными скобками обозначены явления, наблюдавшиеся между сроками (за 1-3 часа до срока); квадратными скобками обозначены град или гололедные отложения с указанием их диаметра в мм.
Облачность - указаны через наклонную черту общая и нижняя облачность в баллах и высота нижней границы облаков в метрах; квадратными скобками обозначены формы облаков: Ci - перистые, Cs - перисто-слоистые, Cc - перисто-кучевые, Ac - высококучевые, As - высокослоистые, Sc - слоисто-кучевые, Ns - слоисто-дождевые, Cu - кучевые, Cb - кучево-дождевые. Подробнее классификацию облаков см. в Атласе облаков (PDF).
T - Температура воздуха - температура, измеренная на высоте 2 м над землей.
Td - Температура точки росы - температура, при понижении до которой содержащийся в воздухе водяной пар достигнет насыщения.
f - Относительная влажность воздуха - влажноcть воздуха, измеренная на высоте 2 м над землей.
Te - Эффективная температура - температура, которую ощущает одетый по сезону человек в тени. Характеристика душности погоды. При расчете учитывается влияние влажности воздуха и скорости ветра на теплоощущения человека.
Tes - Эффективная температура на солнце - температура, которую ощущает человек, с поправкой на солнечный нагрев. Характеристика знойности погоды. Зависит от высоты солнца над горизонтом, облачности и скорости ветра. Ночью, в пасмурную погоду, а также при ветре 12 м/с и более поправка равна нулю.
P - Атмосферное давление - приведенное к уровню моря атмосферное давление.
Po - Атмосферное давление - измеренное на уровне метеостанции атмосферное давление.
Tmin - Минимальная температура - минимум температуры воздуха на высоте 2 м над землей.
Tmax - Максимальная температура - максимум температуры воздуха на высоте 2 м над землей.
R - Количество осадков - Количество выпавших осадков за период времени, мм. При наведении курсора мыши на число - период времени, за который выпало указанное количество осадков.
R24 - Количество осадков - Количество выпавших осадков за 24 часа, мм.
S - Снежный покров - Высота снежного покрова, см. При наведении курсора мыши на число - состояние снежного покрова и степень покрытия местности в баллах.